Location: Unspecified
(0.0000°N, 0.0000°E)
Time: 20:14:31
(UTC+00:00)

COSMOS 2401 - Pass Details

Date: 01 March 2021
Orbit: 1467 x 1500 km, 82.5° (Epoch: 12 April)

Event Time Altitude Azimuth Distance (km) Brightness Sun altitude
Rises 19:16:42 0° 173° (S) 4,578 10.0 -16.0°
Reaches altitude 10° 19:19:40 10° 168° (SSE) 3,598 9.4 -16.7°
Maximum altitude 19:28:01 54° 93° (E) 1,733 7.4 -18.8°
Drops below altitude 10° 19:36:22 10° 18° (NNE) 3,602 9.2 -20.9°
Sets 19:39:18 0° 14° (NNE) 4,583 9.8 -21.6°
